Location: Theodore Roosevelt Nature Center
(40.5943°N, 73.5104°W)
Time: 23:28:42
(UTC-04:00)

OTV 5 (USA 277) - Visible Passes

Search period start: 17 October 2019 00:00
Search period end: 27 October 2019 00:00
Orbit: 310 x 324 km, 54.5° (Epoch: 08 October)

Date Brightness Start Highest point End Pass type
(mag) Time Alt. Az. Time Alt. Az. Time Alt. Az.
17 Oct ? 06:25:59 10° NW 06:28:35 37° NE 06:31:10 10° ESE visible
18 Oct ? 05:08:44 13° NNE 05:08:44 13° NNE 05:09:58 10° ENE visible
18 Oct ? 06:40:26 10° NW 06:43:11 70° SW 06:45:52 10° SE visible
19 Oct ? 05:23:15 24° NNE 05:23:21 25° NNE 05:25:41 10° E visible
20 Oct ? 05:37:54 63° NNE 05:38:01 64° NE 05:40:43 10° ESE visible
21 Oct ? 05:52:41 37° SW 05:52:41 37° SW 05:55:04 10° SSE visible
22 Oct ? 06:07:36 12° SW 06:07:36 12° SW 06:08:18 10° SSW visible
